Time,TemperatureF,DewpointF,PressureIn,WindDirection,WindDirectionDegrees,WindSpeedMPH,WindSpeedGustMPH,Humidity,HourlyPrecipIn,Conditions,Clouds,dailyrainin,SoftwareType,DateUTC
2013-03-11 00:03:00,26.1,21.6,29.85,ESE,112,0.0,0.0,83,0.00,,---,0.04,VWS V14.01,2013-03-11 08:03:00,
2013-03-11 00:08:00,25.7,21.3,29.85,ESE,112,0.0,0.0,83,0.00,,---,0.04,VWS V14.01,2013-03-11 08:08:00,
2013-03-11 00:13:00,25.5,21.1,29.85,ESE,112,0.0,0.0,83,0.00,,---,0.04,VWS V14.01,2013-03-11 08:13:00,
2013-03-11 00:18:00,25.3,20.9,29.85,ESE,112,0.0,0.0,83,0.00,,---,0.04,VWS V14.01,2013-03-11 08:18:00,
2013-03-11 00:23:00,25.0,20.6,29.85,ESE,112,0.0,0.0,83,0.00,,---,0.04,VWS V14.01,2013-03-11 08:23:00,
2013-03-11 00:28:00,25.0,20.6,29.85,ESE,112,0.0,0.0,83,0.00,,---,0.04,VWS V14.01,2013-03-11 08:28:00,
2013-03-11 00:33:00,24.6,20.2,29.85,ESE,112,0.0,0.0,83,0.00,,---,0.04,VWS V14.01,2013-03-11 08:33:00,
2013-03-11 00:38:00,24.4,20.3,29.85,ESE,112,0.0,0.0,84,0.00,,---,0.04,VWS V14.01,2013-03-11 08:38:00,
2013-03-11 00:43:00,24.4,20.3,29.85,ESE,112,1.6,2.2,84,0.00,,---,0.04,VWS V14.01,2013-03-11 08:43:00,
2013-03-11 00:48:00,24.3,20.1,29.85,ESE,112,0.9,1.1,84,0.00,,---,0.04,VWS V14.01,2013-03-11 08:48:00,
2013-03-11 00:53:00,24.3,20.4,29.85,ESE,112,1.6,1.6,85,0.00,,---,0.04,VWS V14.01,2013-03-11 08:53:00,
2013-03-11 00:58:00,24.3,20.1,29.85,ESE,112,2.0,2.0,84,0.00,,---,0.00,VWS V14.01,2013-03-11 08:58:00,
2013-03-11 01:03:00,24.3,20.4,29.85,ESE,112,0.0,0.0,85,0.00,,---,0.00,VWS V14.01,2013-03-11 09:03:00,
2013-03-11 01:08:00,24.3,20.4,29.85,ESE,112,0.0,1.3,85,0.00,,---,0.00,VWS V14.01,2013-03-11 09:08:00,
2013-03-11 01:13:00,24.4,20.6,29.85,ESE,112,0.0,0.0,85,0.00,,---,0.00,VWS V14.01,2013-03-11 09:13:00,
2013-03-11 01:18:00,24.4,20.9,29.85,ESE,112,0.0,0.0,86,0.00,,---,0.00,VWS V14.01,2013-03-11 09:18:00,
2013-03-11 01:23:00,24.6,21.0,29.85,ESE,112,2.7,2.7,86,0.00,,---,0.00,VWS V14.01,2013-03-11 09:23:00,
2013-03-11 01:28:00,24.6,21.0,29.85,ESE,112,0.0,0.9,86,0.00,,---,0.00,VWS V14.01,2013-03-11 09:28:00,
2013-03-11 01:33:00,24.6,21.0,29.82,ESE,112,0.0,0.0,86,0.00,,---,0.00,VWS V14.01,2013-03-11 09:33:00,
2013-03-11 01:38:00,24.8,21.2,29.82,ESE,112,0.0,0.0,86,0.00,,---,0.00,VWS V14.01,2013-03-11 09:38:00,
2013-03-11 01:43:00,24.8,21.2,29.82,ESE,112,0.0,0.0,86,0.00,,---,0.00,VWS V14.01,2013-03-11 09:43:00,
2013-03-11 01:48:00,24.8,21.2,29.82,ESE,112,0.0,0.0,86,0.00,,---,0.00,VWS V14.01,2013-03-11 09:48:00,
2013-03-11 01:53:00,25.0,21.4,29.82,ESE,112,0.0,0.0,86,0.00,,---,0.00,VWS V14.01,2013-03-11 09:53:00,
2013-03-11 01:58:00,24.8,21.2,29.82,ESE,112,0.0,0.0,86,0.00,,---,0.00,VWS V14.01,2013-03-11 09:58:00,
2013-03-11 02:03:00,24.8,21.2,29.85,ESE,112,0.0,0.0,86,0.00,,---,0.00,VWS V14.01,2013-03-11 10:03:00,
2013-03-11 02:08:00,25.0,21.4,29.85,ESE,112,0.0,0.0,86,0.00,,---,0.00,VWS V14.01,2013-03-11 10:08:00,
2013-03-11 02:13:00,24.8,21.2,29.85,ESE,112,0.0,0.0,86,0.00,,---,0.00,VWS V14.01,2013-03-11 10:13:00,
2013-03-11 02:18:00,24.4,20.9,29.85,ESE,112,0.0,0.0,86,0.00,,---,0.00,VWS V14.01,2013-03-11 10:18:00,
2013-03-11 02:23:00,24.3,20.4,29.85,ESE,112,0.0,0.0,85,0.00,,---,0.00,VWS V14.01,2013-03-11 10:23:00,
2013-03-11 02:28:00,24.1,20.2,29.85,ESE,112,0.0,0.0,85,0.00,,---,0.00,VWS V14.01,2013-03-11 10:28:00,
2013-03-11 02:33:00,23.9,20.1,29.85,ESE,112,0.0,0.0,85,0.00,,---,0.00,VWS V14.01,2013-03-11 10:33:00,
2013-03-11 02:38:00,23.7,19.6,29.85,ESE,112,0.0,0.0,84,0.00,,---,0.00,VWS V14.01,2013-03-11 10:38:00,
2013-03-11 02:43:00,23.5,19.4,29.85,ESE,112,0.0,0.0,84,0.00,,---,0.00,VWS V14.01,2013-03-11 10:43:00,
2013-03-11 02:48:00,23.2,18.8,29.85,ESE,112,0.0,0.0,83,0.00,,---,0.00,VWS V14.01,2013-03-11 10:48:00,
2013-03-11 02:53:00,23.0,18.9,29.85,ESE,112,0.0,0.0,84,0.00,,---,0.00,VWS V14.01,2013-03-11 10:53:00,
2013-03-11 02:58:00,22.8,18.7,29.85,ESE,112,1.3,1.3,84,0.00,,---,0.00,VWS V14.01,2013-03-11 10:58:00,
2013-03-11 03:03:00,22.6,18.5,29.88,ESE,112,0.9,1.3,84,0.00,,---,0.00,VWS V14.01,2013-03-11 11:03:00,
2013-03-11 03:08:00,22.8,19.0,29.88,ESE,112,0.0,0.0,85,0.00,,---,0.00,VWS V14.01,2013-03-11 11:08:00,
2013-03-11 03:13:00,22.8,19.0,29.88,ESE,112,2.0,2.0,85,0.00,,---,0.00,VWS V14.01,2013-03-11 11:13:00,
2013-03-11 03:18:00,22.8,19.3,29.88,ESE,112,0.0,0.0,86,0.00,,---,0.00,VWS V14.01,2013-03-11 11:18:00,
2013-03-11 03:23:00,23.2,19.6,29.88,ESE,112,2.0,2.0,86,0.00,,---,0.00,VWS V14.01,2013-03-11 11:23:00,
2013-03-11 03:28:00,23.4,19.8,29.88,ESE,112,1.1,1.1,86,0.00,,---,0.00,VWS V14.01,2013-03-11 11:28:00,
2013-03-11 03:33:00,23.9,20.6,29.88,ESE,112,0.0,0.0,87,0.00,,---,0.00,VWS V14.01,2013-03-11 11:33:00,
2013-03-11 03:38:00,24.3,21.0,29.88,ESE,112,0.0,0.0,87,0.00,,---,0.00,VWS V14.01,2013-03-11 11:38:00,
2013-03-11 03:43:00,24.4,21.4,29.88,ESE,112,0.0,0.0,88,0.00,,---,0.00,VWS V14.01,2013-03-11 11:43:00,
2013-03-11 03:48:00,24.6,21.6,29.88,ESE,112,1.1,1.3,88,0.00,,---,0.00,VWS V14.01,2013-03-11 11:48:00,
2013-03-11 03:53:00,25.0,21.7,29.88,ESE,112,2.0,2.0,87,0.00,,---,0.00,VWS V14.01,2013-03-11 11:53:00,
2013-03-11 03:58:00,25.2,21.8,29.88,ESE,112,1.1,1.1,87,0.00,,---,0.00,VWS V14.01,2013-03-11 11:58:00,
2013-03-11 04:03:00,25.3,22.0,29.88,ESE,112,1.1,1.6,87,0.00,,---,0.00,VWS V14.01,2013-03-11 12:03:00,
2013-03-11 04:08:00,25.3,22.0,29.88,ESE,112,1.3,1.3,87,0.00,,---,0.00,VWS V14.01,2013-03-11 12:08:00,
2013-03-11 04:13:00,25.5,22.2,29.88,ESE,112,0.0,0.0,87,0.00,,---,0.00,VWS V14.01,2013-03-11 12:13:00,
2013-03-11 04:18:00,25.5,22.2,29.88,ESE,112,0.0,0.0,87,0.00,,---,0.00,VWS V14.01,2013-03-11 12:18:00,
2013-03-11 04:23:00,25.7,22.4,29.88,ESE,112,0.0,0.0,87,0.00,,---,0.00,VWS V14.01,2013-03-11 12:23:00,
2013-03-11 04:28:00,25.7,22.4,29.88,ESE,112,2.0,2.0,87,0.00,,---,0.00,VWS V14.01,2013-03-11 12:28:00,
2013-03-11 04:33:00,25.9,22.8,29.91,ESE,112,1.3,2.0,88,0.00,,---,0.00,VWS V14.01,2013-03-11 12:33:00,
2013-03-11 04:38:00,25.9,22.8,29.91,ESE,112,1.6,1.6,88,0.00,,---,0.00,VWS V14.01,2013-03-11 12:38:00,
2013-03-11 04:43:00,25.9,22.8,29.91,ESE,112,1.1,1.3,88,0.00,,---,0.00,VWS V14.01,2013-03-11 12:43:00,
2013-03-11 04:48:00,25.7,22.6,29.91,ESE,112,0.9,1.3,88,0.00,,---,0.00,VWS V14.01,2013-03-11 12:48:00,
2013-03-11 04:53:00,25.7,22.6,29.91,ESE,112,0.9,0.9,88,0.00,,---,0.00,VWS V14.01,2013-03-11 12:53:00,
2013-03-11 04:58:00,25.5,22.5,29.91,ESE,112,1.3,2.2,88,0.00,,---,0.00,VWS V14.01,2013-03-11 12:58:00,
2013-03-11 05:03:00,25.5,22.5,29.88,ESE,112,1.6,1.6,88,0.00,,---,0.00,VWS V14.01,2013-03-11 13:03:00,
2013-03-11 05:08:00,25.3,22.3,29.88,ESE,112,2.2,2.9,88,0.00,,---,0.00,VWS V14.01,2013-03-11 13:08:00,
2013-03-11 05:13:00,25.2,22.1,29.88,ESE,112,1.1,1.1,88,0.00,,---,0.00,VWS V14.01,2013-03-11 13:13:00,
2013-03-11 05:18:00,25.2,22.1,29.88,ESE,112,1.6,1.6,88,0.00,,---,0.00,VWS V14.01,2013-03-11 13:18:00,
2013-03-11 05:23:00,25.0,21.9,29.88,ESE,112,1.6,2.2,88,0.00,,---,0.00,VWS V14.01,2013-03-11 13:23:00,
2013-03-11 05:28:00,24.8,21.8,29.88,ESE,112,2.0,2.0,88,0.00,,---,0.00,VWS V14.01,2013-03-11 13:28:00,
2013-03-11 05:33:00,24.6,21.6,29.85,ESE,112,1.6,1.6,88,0.00,,---,0.00,VWS V14.01,2013-03-11 13:33:00,
2013-03-11 05:38:00,24.4,21.4,29.85,ESE,112,2.0,2.0,88,0.00,,---,0.00,VWS V14.01,2013-03-11 13:38:00,
2013-03-11 05:43:00,24.4,21.4,29.85,ESE,112,0.0,0.0,88,0.00,,---,0.00,VWS V14.01,2013-03-11 13:43:00,
2013-03-11 05:48:00,24.3,21.2,29.88,ESE,112,1.3,1.3,88,0.00,,---,0.00,VWS V14.01,2013-03-11 13:48:00,
2013-03-11 05:53:00,24.1,21.0,29.88,ESE,112,0.0,1.1,88,0.00,,---,0.00,VWS V14.01,2013-03-11 13:53:00,
2013-03-11 05:58:00,23.7,20.7,29.88,ESE,112,0.9,0.9,88,0.00,,---,0.00,VWS V14.01,2013-03-11 13:58:00,
2013-03-11 06:03:00,23.5,20.2,29.85,ESE,112,1.3,2.5,87,0.00,,---,0.00,VWS V14.01,2013-03-11 14:03:00,
2013-03-11 06:08:00,23.4,20.1,29.85,ESE,112,1.1,2.0,87,0.00,,---,0.00,VWS V14.01,2013-03-11 14:08:00,
2013-03-11 06:13:00,23.2,19.9,29.85,ESE,112,1.6,1.6,87,0.00,,---,0.00,VWS V14.01,2013-03-11 14:13:00,
2013-03-11 06:18:00,23.0,20.0,29.85,ESE,112,2.0,3.6,88,0.00,,---,0.00,VWS V14.01,2013-03-11 14:18:00,
2013-03-11 06:23:00,22.8,19.8,29.85,ESE,112,0.0,0.9,88,0.00,,---,0.00,VWS V14.01,2013-03-11 14:23:00,
2013-03-11 06:28:00,22.8,19.8,29.85,ESE,112,2.2,2.2,88,0.00,,---,0.00,VWS V14.01,2013-03-11 14:28:00,
2013-03-11 06:33:00,22.8,19.8,29.88,ESE,112,3.4,3.4,88,0.00,,---,0.00,VWS V14.01,2013-03-11 14:33:00,
2013-03-11 06:38:00,22.8,19.8,29.88,ESE,112,1.1,1.1,88,0.00,,---,0.00,VWS V14.01,2013-03-11 14:38:00,
2013-03-11 06:43:00,22.8,19.8,29.88,ESE,112,2.0,2.2,88,0.00,,---,0.00,VWS V14.01,2013-03-11 14:43:00,
2013-03-11 06:48:00,22.8,19.8,29.85,ESE,112,2.5,2.7,88,0.00,,---,0.00,VWS V14.01,2013-03-11 14:48:00,
2013-03-11 06:53:00,22.6,19.6,29.85,ESE,112,0.0,0.0,88,0.00,,---,0.00,VWS V14.01,2013-03-11 14:53:00,
2013-03-11 06:58:00,22.6,19.6,29.85,ESE,112,0.9,1.6,88,0.00,,---,0.00,VWS V14.01,2013-03-11 14:58:00,
2013-03-11 07:03:00,22.6,19.6,29.85,ESE,112,1.3,2.0,88,0.00,,---,0.00,VWS V14.01,2013-03-11 15:03:00,
2013-03-11 07:08:00,22.5,19.5,29.85,ESE,112,0.0,0.0,88,0.00,,---,0.00,VWS V14.01,2013-03-11 15:08:00,
2013-03-11 07:13:00,22.5,19.5,29.85,ESE,112,1.6,1.6,88,0.00,,---,0.00,VWS V14.01,2013-03-11 15:13:00,
2013-03-11 07:18:00,22.5,19.5,29.88,ESE,112,1.1,1.3,88,0.00,,---,0.00,VWS V14.01,2013-03-11 15:18:00,
2013-03-11 07:23:00,22.3,19.3,29.88,ESE,112,0.0,0.0,88,0.00,,---,0.00,VWS V14.01,2013-03-11 15:23:00,
2013-03-11 07:28:00,22.1,19.1,29.88,ESE,112,2.0,2.0,88,0.00,,---,0.00,VWS V14.01,2013-03-11 15:28:00,
2013-03-11 07:33:00,21.9,18.6,29.88,ESE,112,0.9,2.0,87,0.00,,---,0.00,VWS V14.01,2013-03-11 15:33:00,
2013-03-11 07:38:00,21.7,18.5,29.88,ESE,112,1.3,1.3,87,0.00,,---,0.00,VWS V14.01,2013-03-11 15:38:00,
2013-03-11 07:43:00,21.7,18.5,29.88,ESE,112,1.3,2.0,87,0.00,,---,0.00,VWS V14.01,2013-03-11 15:43:00,
2013-03-11 07:48:00,21.6,18.3,29.88,ESE,112,2.2,2.2,87,0.00,,---,0.00,VWS V14.01,2013-03-11 15:48:00,
2013-03-11 07:53:00,21.6,18.3,29.88,ESE,112,2.0,2.0,87,0.00,,---,0.00,VWS V14.01,2013-03-11 15:53:00,
2013-03-11 07:58:00,21.6,18.3,29.88,ESE,112,1.1,1.3,87,0.00,,---,0.00,VWS V14.01,2013-03-11 15:58:00,
2013-03-11 08:03:00,21.6,18.6,29.88,ESE,112,3.1,4.0,88,0.00,,---,0.00,VWS V14.01,2013-03-11 16:03:00,
2013-03-11 08:08:00,21.6,18.6,29.88,ESE,112,2.0,2.7,88,0.00,,---,0.00,VWS V14.01,2013-03-11 16:08:00,
2013-03-11 08:13:00,21.6,18.6,29.88,ESE,112,1.6,1.6,88,0.00,,---,0.00,VWS V14.01,2013-03-11 16:13:00,
2013-03-11 08:18:00,21.4,18.1,29.88,ESE,112,2.0,2.0,87,0.00,,---,0.00,VWS V14.01,2013-03-11 16:18:00,
2013-03-11 08:23:00,21.4,18.1,29.88,ESE,112,1.6,1.6,87,0.00,,---,0.00,VWS V14.01,2013-03-11 16:23:00,
2013-03-11 08:28:00,21.2,18.2,29.88,ESE,112,1.6,1.6,88,0.00,,---,0.00,VWS V14.01,2013-03-11 16:28:00,
2013-03-11 08:33:00,21.0,17.8,29.88,ESE,112,2.0,2.0,87,0.00,,---,0.00,VWS V14.01,2013-03-11 16:33:00,
2013-03-11 08:38:00,21.0,17.8,29.88,ESE,112,1.1,1.1,87,0.00,,---,0.00,VWS V14.01,2013-03-11 16:38:00,
2013-03-11 08:43:00,21.0,17.8,29.88,ESE,112,1.6,1.6,87,0.00,,---,0.00,VWS V14.01,2013-03-11 16:43:00,
2013-03-11 08:48:00,20.8,17.6,29.91,ESE,112,0.0,0.0,87,0.00,,---,0.00,VWS V14.01,2013-03-11 16:48:00,
2013-03-11 08:53:00,20.7,17.4,29.91,ESE,112,1.1,1.1,87,0.00,,---,0.00,VWS V14.01,2013-03-11 16:53:00,
2013-03-11 08:58:00,20.5,17.0,29.91,ESE,112,1.1,1.1,86,0.00,,---,0.00,VWS V14.01,2013-03-11 16:58:00,
2013-03-11 09:03:00,20.5,17.0,29.91,ESE,112,2.0,2.0,86,0.00,,---,0.00,VWS V14.01,2013-03-11 17:03:00,
2013-03-11 09:09:00,20.3,16.8,29.91,ESE,112,1.3,1.6,86,0.00,,---,0.00,VWS V14.01,2013-03-11 17:09:00,
2013-03-11 09:14:00,20.3,16.8,29.91,ESE,112,1.6,1.6,86,0.00,,---,0.00,VWS V14.01,2013-03-11 17:14:00,
2013-03-11 09:19:00,20.3,16.8,29.88,ESE,112,1.3,2.0,86,0.00,,---,0.00,VWS V14.01,2013-03-11 17:19:00,
2013-03-11 09:24:00,20.3,16.8,29.88,ESE,112,1.3,2.2,86,0.00,,---,0.00,VWS V14.01,2013-03-11 17:24:00,
2013-03-11 09:29:00,20.5,17.0,29.88,ESE,112,2.5,3.1,86,0.00,,---,0.00,VWS V14.01,2013-03-11 17:29:00,
2013-03-11 09:33:00,20.7,17.4,29.91,ESE,112,2.5,2.7,87,0.00,,---,0.00,VWS V14.01,2013-03-11 17:33:00,
2013-03-11 09:38:00,20.7,17.4,29.91,ESE,112,2.9,2.9,87,0.00,,---,0.00,VWS V14.01,2013-03-11 17:38:00,
2013-03-11 09:44:00,20.8,17.6,29.91,ESE,112,2.7,2.9,87,0.00,,---,0.00,VWS V14.01,2013-03-11 17:44:00,
2013-03-11 09:49:00,21.0,17.8,29.91,ESE,112,2.0,2.7,87,0.00,,---,0.00,VWS V14.01,2013-03-11 17:49:00,
2013-03-11 09:53:00,21.6,18.3,29.91,ESE,112,3.4,3.4,87,0.00,,---,0.00,VWS V14.01,2013-03-11 17:53:00,
2013-03-11 09:59:00,21.9,18.6,29.91,ESE,112,2.9,2.9,87,0.00,,---,0.00,VWS V14.01,2013-03-11 17:59:00,
2013-03-11 10:03:00,22.5,19.2,29.94,ESE,112,2.5,2.5,87,0.00,,---,0.00,VWS V14.01,2013-03-11 18:03:00,
2013-03-11 10:09:00,22.8,19.5,29.94,ESE,112,2.5,2.5,87,0.00,,---,0.00,VWS V14.01,2013-03-11 18:09:00,
2013-03-11 10:14:00,23.2,19.9,29.94,ESE,112,2.5,2.5,87,0.00,,---,0.00,VWS V14.01,2013-03-11 18:14:00,
2013-03-11 10:19:00,23.2,19.6,29.91,ESE,112,1.6,2.9,86,0.00,,---,0.00,VWS V14.01,2013-03-11 18:19:00,
2013-03-11 10:24:00,23.2,19.6,29.91,ESE,112,1.1,1.6,86,0.00,,---,0.00,VWS V14.01,2013-03-11 18:24:00,
2013-03-11 10:29:00,23.4,19.5,29.91,ESE,112,2.7,2.7,85,0.00,,---,0.00,VWS V14.01,2013-03-11 18:29:00,
2013-03-11 10:34:00,23.5,19.7,29.91,ESE,112,2.9,2.9,85,0.00,,---,0.00,VWS V14.01,2013-03-11 18:34:00,
2013-03-11 10:39:00,23.7,20.1,29.91,ESE,112,2.7,2.7,86,0.00,,---,0.00,VWS V14.01,2013-03-11 18:39:00,
2013-03-11 10:44:00,24.1,20.5,29.91,ESE,112,2.7,2.7,86,0.00,,---,0.00,VWS V14.01,2013-03-11 18:44:00,
2013-03-11 10:49:00,24.8,21.2,29.88,ESE,112,2.2,2.2,86,0.00,,---,0.00,VWS V14.01,2013-03-11 18:49:00,
2013-03-11 10:54:00,25.5,21.9,29.88,ESE,112,2.5,4.0,86,0.00,,---,0.00,VWS V14.01,2013-03-11 18:54:00,
2013-03-11 10:59:00,26.1,22.5,29.88,ESE,112,2.5,2.5,86,0.00,,---,0.00,VWS V14.01,2013-03-11 18:59:00,
2013-03-11 11:04:00,26.8,23.2,29.91,ESE,112,2.5,2.5,86,0.00,,---,0.00,VWS V14.01,2013-03-11 19:04:00,
2013-03-11 11:09:00,27.3,23.1,29.91,ESE,112,3.4,3.4,84,0.00,,---,0.00,VWS V14.01,2013-03-11 19:09:00,
2013-03-11 11:13:00,27.3,22.6,29.91,ESE,112,2.5,2.5,82,0.00,,---,0.00,VWS V14.01,2013-03-11 19:13:00,
2013-03-11 11:18:00,28.2,23.1,29.91,ESE,112,2.7,2.7,81,0.00,,---,0.00,VWS V14.01,2013-03-11 19:18:00,
2013-03-11 11:23:00,29.1,23.7,29.91,ESE,112,2.9,4.0,80,0.00,,---,0.00,VWS V14.01,2013-03-11 19:23:00,
2013-03-11 11:28:00,29.8,23.8,29.91,ESE,112,0.0,0.0,78,0.00,,---,0.00,VWS V14.01,2013-03-11 19:28:00,
2013-03-11 11:33:00,30.9,24.6,29.91,ESE,112,3.1,3.1,77,0.00,,---,0.00,VWS V14.01,2013-03-11 19:33:00,
2013-03-11 11:38:00,31.3,24.0,29.91,ESE,112,2.0,2.0,74,0.00,,---,0.00,VWS V14.01,2013-03-11 19:38:00,
2013-03-11 11:43:00,32.2,23.9,29.91,ESE,112,2.7,2.7,71,0.00,,---,0.00,VWS V14.01,2013-03-11 19:43:00,
2013-03-11 11:48:00,32.4,23.0,29.88,ESE,112,0.0,2.0,68,0.00,,---,0.00,VWS V14.01,2013-03-11 19:48:00,
2013-03-11 11:53:00,32.9,23.2,29.88,ESE,112,1.3,2.0,67,0.00,,---,0.00,VWS V14.01,2013-03-11 19:53:00,
2013-03-11 11:58:00,32.5,21.7,29.88,ESE,112,0.0,3.1,64,0.00,,---,0.00,VWS V14.01,2013-03-11 19:58:00,
2013-03-11 12:03:00,32.4,20.4,29.91,ESE,112,3.1,3.6,61,0.00,,---,0.00,VWS V14.01,2013-03-11 20:03:00,
2013-03-11 12:08:00,32.7,21.5,29.91,ESE,112,2.9,2.9,63,0.00,,---,0.00,VWS V14.01,2013-03-11 20:08:00,
2013-03-11 12:13:00,33.3,22.0,29.91,ESE,112,0.0,1.6,63,0.00,,---,0.00,VWS V14.01,2013-03-11 20:13:00,
2013-03-11 12:18:00,34.5,23.6,29.91,ESE,112,2.9,2.9,64,0.00,,---,0.00,VWS V14.01,2013-03-11 20:18:00,
2013-03-11 12:23:00,34.0,21.6,29.91,ESE,112,3.1,3.1,60,0.00,,---,0.00,VWS V14.01,2013-03-11 20:23:00,
2013-03-11 12:28:00,34.0,21.2,29.91,ESE,112,0.9,1.3,59,0.00,,---,0.00,VWS V14.01,2013-03-11 20:28:00,
2013-03-11 12:33:00,34.9,22.0,29.91,ESE,112,1.6,2.0,59,0.00,,---,0.00,VWS V14.01,2013-03-11 20:33:00,
2013-03-11 12:38:00,34.0,20.0,29.91,ESE,112,3.8,4.7,56,0.00,,---,0.00,VWS V14.01,2013-03-11 20:38:00,
2013-03-11 12:43:00,34.2,20.9,29.91,ESE,112,1.6,1.6,58,0.00,,---,0.00,VWS V14.01,2013-03-11 20:43:00,
2013-03-11 12:48:00,33.6,20.8,29.94,ESE,112,3.8,4.0,59,0.00,,---,0.00,VWS V14.01,2013-03-11 20:48:00,
2013-03-11 12:53:00,34.0,21.6,29.94,ESE,112,2.2,2.2,60,0.00,,---,0.00,VWS V14.01,2013-03-11 20:53:00,
2013-03-11 12:58:00,34.5,21.7,29.94,ESE,112,0.0,1.3,59,0.00,,---,0.00,VWS V14.01,2013-03-11 20:58:00,
2013-03-11 13:03:00,34.5,21.3,29.94,ESE,112,3.6,3.6,58,0.00,,---,0.00,VWS V14.01,2013-03-11 21:03:00,
2013-03-11 13:08:00,35.2,22.0,29.94,ESE,112,3.8,3.8,58,0.00,,---,0.00,VWS V14.01,2013-03-11 21:08:00,
2013-03-11 13:13:00,35.1,21.4,29.94,ESE,112,1.6,3.4,57,0.00,,---,0.00,VWS V14.01,2013-03-11 21:13:00,
2013-03-11 13:18:00,35.6,21.9,29.91,ESE,112,0.0,1.6,57,0.00,,---,0.00,VWS V14.01,2013-03-11 21:18:00,
2013-03-11 13:23:00,35.8,21.6,29.91,ESE,112,2.7,2.7,56,0.00,,---,0.00,VWS V14.01,2013-03-11 21:23:00,
2013-03-11 13:28:00,35.8,21.6,29.91,ESE,112,3.1,3.1,56,0.00,,---,0.00,VWS V14.01,2013-03-11 21:28:00,
2013-03-11 13:33:00,36.3,22.6,29.91,ESE,112,2.5,2.5,57,0.00,,---,0.00,VWS V14.01,2013-03-11 21:33:00,
2013-03-11 13:38:00,36.7,22.5,29.91,ESE,112,3.8,3.8,56,0.00,,---,0.00,VWS V14.01,2013-03-11 21:38:00,
2013-03-11 13:43:00,36.7,22.0,29.91,ESE,112,2.7,2.7,55,0.00,,---,0.00,VWS V14.01,2013-03-11 21:43:00,
2013-03-11 13:48:00,37.2,22.6,29.91,ESE,112,2.0,2.2,55,0.00,,---,0.00,VWS V14.01,2013-03-11 21:48:00,
2013-03-11 13:53:00,37.4,22.3,29.91,ESE,112,1.1,1.1,54,0.00,,---,0.00,VWS V14.01,2013-03-11 21:53:00,
2013-03-11 13:58:00,38.1,23.0,29.91,ESE,112,1.3,2.2,54,0.00,,---,0.00,VWS V14.01,2013-03-11 21:58:00,
2013-03-11 14:03:00,38.8,23.2,29.91,ESE,112,1.1,1.1,53,0.00,,---,0.00,VWS V14.01,2013-03-11 22:03:00,
2013-03-11 14:08:00,39.0,22.9,29.91,ESE,112,1.6,4.0,52,0.00,,---,0.00,VWS V14.01,2013-03-11 22:08:00,
2013-03-11 14:13:00,39.2,22.6,29.91,ESE,112,0.0,1.6,51,0.00,,---,0.00,VWS V14.01,2013-03-11 22:13:00,
2013-03-11 14:18:00,39.4,22.8,29.91,ESE,112,2.7,3.4,51,0.00,,---,0.00,VWS V14.01,2013-03-11 22:18:00,
2013-03-11 14:23:00,39.4,22.8,29.91,ESE,112,1.1,1.1,51,0.00,,---,0.00,VWS V14.01,2013-03-11 22:23:00,
2013-03-11 14:28:00,39.7,23.1,29.91,ESE,112,2.9,2.9,51,0.00,,---,0.00,VWS V14.01,2013-03-11 22:28:00,
2013-03-11 14:33:00,39.9,23.3,29.91,ESE,112,2.0,3.8,51,0.00,,---,0.00,VWS V14.01,2013-03-11 22:33:00,
2013-03-11 14:38:00,39.9,23.7,29.91,ESE,112,2.0,3.1,52,0.00,,---,0.00,VWS V14.01,2013-03-11 22:38:00,
2013-03-11 14:43:00,39.7,23.1,29.91,ESE,112,2.9,4.3,51,0.00,,---,0.00,VWS V14.01,2013-03-11 22:43:00,
2013-03-11 14:48:00,38.8,22.3,29.91,ESE,112,3.6,3.6,51,0.00,,---,0.00,VWS V14.01,2013-03-11 22:48:00,
2013-03-11 14:53:00,38.1,22.1,29.91,ESE,112,4.0,4.7,52,0.00,,---,0.00,VWS V14.01,2013-03-11 22:53:00,
2013-03-11 14:58:00,37.2,21.7,29.91,WNW,292,5.6,5.6,53,0.00,,---,0.00,VWS V14.01,2013-03-11 22:58:00,
2013-03-11 15:03:00,36.5,21.5,29.91,WNW,292,2.9,2.9,54,0.00,,---,0.00,VWS V14.01,2013-03-11 23:03:00,
2013-03-11 15:08:00,36.3,22.1,29.91,WNW,292,2.9,4.9,56,0.00,,---,0.00,VWS V14.01,2013-03-11 23:08:00,
2013-03-11 15:13:00,37.2,23.4,29.91,WSW,248,4.3,4.3,57,0.00,,---,0.00,VWS V14.01,2013-03-11 23:13:00,
2013-03-11 15:18:00,37.4,22.7,29.91,WNW,292,3.6,3.8,55,0.00,,---,0.00,VWS V14.01,2013-03-11 23:18:00,
2013-03-11 15:23:00,37.6,22.9,29.91,NW,315,3.4,3.4,55,0.00,,---,0.00,VWS V14.01,2013-03-11 23:23:00,
2013-03-11 15:28:00,38.8,23.6,29.91,WSW,248,3.8,4.9,54,0.00,,---,0.00,VWS V14.01,2013-03-11 23:28:00,
2013-03-11 15:33:00,41.0,24.3,29.88,West,270,2.5,3.1,51,0.00,,---,0.00,VWS V14.01,2013-03-11 23:33:00,
2013-03-11 15:38:00,42.8,25.5,29.88,West,270,1.6,1.6,50,0.00,,---,0.00,VWS V14.01,2013-03-11 23:38:00,
2013-03-11 15:43:00,44.6,26.6,29.88,WNW,292,2.9,3.8,49,0.00,,---,0.00,VWS V14.01,2013-03-11 23:43:00,
2013-03-11 15:48:00,44.6,26.1,29.88,WSW,248,2.2,2.2,48,0.00,,---,0.00,VWS V14.01,2013-03-11 23:48:00,
2013-03-11 15:54:00,44.6,23.5,29.88,WSW,248,4.0,4.0,43,0.00,,---,0.00,VWS V14.01,2013-03-11 23:54:00,
2013-03-11 15:59:00,43.9,22.9,29.88,WSW,248,2.7,2.7,43,0.00,,---,0.00,VWS V14.01,2013-03-11 23:59:00,
2013-03-11 16:04:00,43.3,21.8,29.91,SW,225,3.8,4.3,42,0.00,,---,0.00,VWS V14.01,2013-03-12 00:04:00,
2013-03-11 16:09:00,43.5,22.0,29.91,WNW,292,3.8,4.0,42,0.00,,---,0.00,VWS V14.01,2013-03-12 00:09:00,
2013-03-11 16:14:00,43.0,21.5,29.91,West,270,6.0,6.0,42,0.00,,---,0.00,VWS V14.01,2013-03-12 00:14:00,
2013-03-11 16:18:00,42.3,20.8,29.91,WSW,248,1.6,2.7,42,0.00,,---,0.00,VWS V14.01,2013-03-12 00:18:00,
2013-03-11 16:23:00,42.4,21.5,29.91,WSW,248,4.0,4.0,43,0.00,,---,0.00,VWS V14.01,2013-03-12 00:23:00,
2013-03-11 16:28:00,42.8,21.9,29.91,WSW,248,2.0,2.5,43,0.00,,---,0.00,VWS V14.01,2013-03-12 00:28:00,
2013-03-11 16:33:00,43.3,22.4,29.91,West,270,3.1,4.9,43,0.00,,---,0.00,VWS V14.01,2013-03-12 00:33:00,
2013-03-11 16:38:00,43.5,22.5,29.91,WNW,292,2.9,4.3,43,0.00,,---,0.00,VWS V14.01,2013-03-12 00:38:00,
2013-03-11 16:43:00,44.2,22.6,29.91,WSW,248,2.9,2.9,42,0.00,,---,0.00,VWS V14.01,2013-03-12 00:43:00,
2013-03-11 16:48:00,45.1,22.9,29.91,NW,315,2.5,3.8,41,0.00,,---,0.00,VWS V14.01,2013-03-12 00:48:00,
2013-03-11 16:53:00,45.7,22.8,29.91,NNW,338,3.8,5.8,40,0.00,,---,0.00,VWS V14.01,2013-03-12 00:53:00,
2013-03-11 16:58:00,46.4,22.8,29.91,WNW,292,2.9,4.0,39,0.00,,---,0.00,VWS V14.01,2013-03-12 00:58:00,
2013-03-11 17:03:00,46.9,23.9,29.91,WNW,292,2.2,2.5,40,0.00,,---,0.00,VWS V14.01,2013-03-12 01:03:00,
2013-03-11 17:08:00,45.7,22.2,29.91,NNW,338,2.0,2.9,39,0.00,,---,0.00,VWS V14.01,2013-03-12 01:08:00,
2013-03-11 17:13:00,44.6,21.2,29.91,WNW,292,2.5,2.5,39,0.00,,---,0.00,VWS V14.01,2013-03-12 01:13:00,
2013-03-11 17:18:00,44.1,21.3,29.91,WNW,292,1.1,1.1,40,0.00,,---,0.00,VWS V14.01,2013-03-12 01:18:00,
2013-03-11 17:23:00,43.5,19.6,29.91,ENE,68,3.8,4.0,38,0.00,,---,0.00,VWS V14.01,2013-03-12 01:23:00,
2013-03-11 17:28:00,42.4,18.6,29.91,NNW,338,7.6,7.6,38,0.00,,---,0.00,VWS V14.01,2013-03-12 01:28:00,
2013-03-11 17:33:00,41.9,18.2,29.91,NNW,338,2.2,2.2,38,0.00,,---,0.00,VWS V14.01,2013-03-12 01:33:00,
2013-03-11 17:38:00,41.2,17.5,29.91,NNW,338,2.2,2.9,38,0.00,,---,0.00,VWS V14.01,2013-03-12 01:38:00,
2013-03-11 17:43:00,40.6,15.1,29.91,NNW,338,0.0,2.7,35,0.00,,---,0.00,VWS V14.01,2013-03-12 01:43:00,
2013-03-11 17:48:00,40.3,15.5,29.91,NNE,22,4.3,8.7,36,0.00,,---,0.00,VWS V14.01,2013-03-12 01:48:00,
2013-03-11 17:53:00,39.7,15.6,29.91,NE,45,2.7,4.0,37,0.00,,---,0.00,VWS V14.01,2013-03-12 01:53:00,
2013-03-11 17:58:00,39.4,15.3,29.91,NNE,22,3.1,3.4,37,0.00,,---,0.00,VWS V14.01,2013-03-12 01:58:00,
2013-03-11 18:03:00,38.8,14.2,29.91,NNE,22,4.3,5.8,36,0.00,,---,0.00,VWS V14.01,2013-03-12 02:03:00,
2013-03-11 18:08:00,38.1,13.5,29.91,NNW,338,3.8,4.7,36,0.00,,---,0.00,VWS V14.01,2013-03-12 02:08:00,
2013-03-11 18:13:00,37.6,13.1,29.91,NNW,338,4.7,8.1,36,0.00,,---,0.00,VWS V14.01,2013-03-12 02:13:00,
2013-03-11 18:18:00,37.0,12.6,29.88,NNE,22,4.0,5.8,36,0.00,,---,0.00,VWS V14.01,2013-03-12 02:18:00,
2013-03-11 18:23:00,36.7,12.9,29.88,NNE,22,7.2,7.2,37,0.00,,---,0.00,VWS V14.01,2013-03-12 02:23:00,
2013-03-11 18:28:00,36.0,12.2,29.88,NNE,22,0.0,2.2,37,0.00,,---,0.00,VWS V14.01,2013-03-12 02:28:00,
2013-03-11 18:33:00,35.8,11.4,29.88,North,0,4.9,6.0,36,0.00,,---,0.00,VWS V14.01,2013-03-12 02:33:00,
2013-03-11 18:38:00,35.8,10.2,29.88,ENE,68,4.9,8.5,34,0.00,,---,0.00,VWS V14.01,2013-03-12 02:38:00,
2013-03-11 18:43:00,35.6,11.3,29.88,NNE,22,4.0,6.0,36,0.00,,---,0.00,VWS V14.01,2013-03-12 02:43:00,
2013-03-11 18:48:00,35.4,11.1,29.88,NNE,22,6.0,6.0,36,0.00,,---,0.00,VWS V14.01,2013-03-12 02:48:00,
2013-03-11 18:53:00,35.1,10.8,29.88,ESE,112,2.9,5.4,36,0.00,,---,0.00,VWS V14.01,2013-03-12 02:53:00,
2013-03-11 18:58:00,34.7,9.9,29.88,WNW,292,3.1,7.8,35,0.00,,---,0.00,VWS V14.01,2013-03-12 02:58:00,
2013-03-11 19:02:00,31.8,7.9,29.85,NNW,338,4.0,8.5,36,0.00,,---,0.00,VWS V14.01,2013-03-12 03:02:00,
2013-03-11 19:03:00,34.3,9.5,29.88,ENE,68,10.1,10.1,35,0.00,,---,0.00,VWS V14.01,2013-03-12 03:03:00,
2013-03-11 19:04:00,31.8,7.9,29.85,NNE,22,9.8,9.8,36,0.00,,---,0.00,VWS V14.01,2013-03-12 03:04:00,
2013-03-11 19:05:00,31.8,7.9,29.85,NNE,22,9.8,9.8,36,0.00,,---,0.00,VWS V14.01,2013-03-12 03:05:00,
2013-03-11 19:06:00,31.8,7.9,29.85,East,90,3.8,9.8,36,0.00,,---,0.00,VWS V14.01,2013-03-12 03:06:00,
2013-03-11 19:07:00,31.5,7.6,29.85,NNE,22,3.1,3.8,36,0.00,,---,0.00,VWS V14.01,2013-03-12 03:07:00,
2013-03-11 19:08:00,34.3,9.5,29.88,NNE,22,6.3,7.4,35,0.00,,---,0.00,VWS V14.01,2013-03-12 03:08:00,
2013-03-11 19:13:00,33.8,9.1,29.88,NNE,22,7.2,7.2,35,0.00,,---,0.00,VWS V14.01,2013-03-12 03:13:00,
2013-03-11 19:18:00,33.6,9.5,29.85,NNE,22,3.8,7.8,36,0.00,,---,0.00,VWS V14.01,2013-03-12 03:18:00,
2013-03-11 19:23:00,33.1,9.1,29.85,NNE,22,7.6,11.9,36,0.00,,---,0.00,VWS V14.01,2013-03-12 03:23:00,
2013-03-11 19:28:00,32.9,8.9,29.85,NNE,22,2.7,5.6,36,0.00,,---,0.00,VWS V14.01,2013-03-12 03:28:00,
2013-03-11 19:33:00,32.7,8.1,29.88,NNW,338,10.7,10.7,35,0.00,,---,0.00,VWS V14.01,2013-03-12 03:33:00,
2013-03-11 19:38:00,32.5,8.6,29.88,NNE,22,3.1,5.4,36,0.00,,---,0.00,VWS V14.01,2013-03-12 03:38:00,
2013-03-11 19:43:00,32.4,8.4,29.88,ESE,112,3.6,4.9,36,0.00,,---,0.00,VWS V14.01,2013-03-12 03:43:00,
2013-03-11 19:48:00,32.0,8.1,29.85,NNE,22,4.9,6.5,36,0.00,,---,0.00,VWS V14.01,2013-03-12 03:48:00,
2013-03-11 19:53:00,32.0,8.1,29.85,NNE,22,3.4,4.9,36,0.00,,---,0.00,VWS V14.01,2013-03-12 03:53:00,
2013-03-11 19:58:00,31.8,7.9,29.85,NNE,22,4.9,10.1,36,0.00,,---,0.00,VWS V14.01,2013-03-12 03:58:00,
2013-03-11 20:03:00,31.6,7.8,29.85,NNW,338,2.9,3.8,36,0.00,,---,0.00,VWS V14.01,2013-03-12 04:03:00,
2013-03-11 20:08:00,31.5,7.6,29.85,NNE,22,3.8,8.1,36,0.00,,---,0.00,VWS V14.01,2013-03-12 04:08:00,
2013-03-11 20:13:00,31.1,7.3,29.85,NE,45,8.1,8.1,36,0.00,,---,0.00,VWS V14.01,2013-03-12 04:13:00,
2013-03-11 20:18:00,31.3,7.4,29.85,NNW,338,5.4,6.0,36,0.00,,---,0.00,VWS V14.01,2013-03-12 04:18:00,
2013-03-11 20:23:00,31.5,7.6,29.85,NNE,22,5.8,8.5,36,0.00,,---,0.00,VWS V14.01,2013-03-12 04:23:00,
2013-03-11 20:28:00,31.3,7.4,29.85,North,0,6.0,6.0,36,0.00,,---,0.00,VWS V14.01,2013-03-12 04:28:00,
2013-03-11 20:33:00,31.1,7.3,29.85,ESE,112,3.4,6.0,36,0.00,,---,0.00,VWS V14.01,2013-03-12 04:33:00,
2013-03-11 20:38:00,31.1,7.3,29.85,NNW,338,4.3,9.4,36,0.00,,---,0.00,VWS V14.01,2013-03-12 04:38:00,
2013-03-11 20:43:00,31.1,7.3,29.85,NNW,338,2.9,3.8,36,0.00,,---,0.00,VWS V14.01,2013-03-12 04:43:00,
2013-03-11 20:48:00,30.7,7.0,29.85,NNE,22,7.8,7.8,36,0.00,,---,0.00,VWS V14.01,2013-03-12 04:48:00,
2013-03-11 20:53:00,30.7,0.0,29.85,NNE,22,5.8,5.8,100,0.00,,---,0.00,VWS V14.01,2013-03-12 04:53:00,
2013-03-11 20:58:00,30.4,6.6,29.85,NNW,338,3.1,4.0,36,0.00,,---,0.00,VWS V14.01,2013-03-12 04:58:00,
2013-03-11 21:03:00,30.4,6.6,29.85,North,0,7.8,8.5,36,0.00,,---,0.00,VWS V14.01,2013-03-12 05:03:00,
2013-03-11 21:08:00,30.7,7.0,29.85,NNE,22,7.4,8.5,36,0.00,,---,0.00,VWS V14.01,2013-03-12 05:08:00,
2013-03-11 21:13:00,30.9,6.5,29.85,NE,45,15.2,15.2,35,0.00,,---,0.00,VWS V14.01,2013-03-12 05:13:00,
2013-03-11 21:18:00,30.7,6.3,29.85,ESE,112,2.0,8.5,35,0.00,,---,0.00,VWS V14.01,2013-03-12 05:18:00,
2013-03-11 21:23:00,30.7,6.3,29.85,ENE,68,6.5,10.1,35,0.00,,---,0.00,VWS V14.01,2013-03-12 05:23:00,
2013-03-11 21:28:00,31.1,6.7,29.85,NNE,22,10.5,10.5,35,0.00,,---,0.00,VWS V14.01,2013-03-12 05:28:00,
2013-03-11 21:33:00,31.1,6.7,29.85,ENE,68,11.0,11.9,35,0.00,,---,0.00,VWS V14.01,2013-03-12 05:33:00,
2013-03-11 21:38:00,30.9,6.5,29.85,NNW,338,4.0,6.0,35,0.00,,---,0.00,VWS V14.01,2013-03-12 05:38:00,
2013-03-11 21:43:00,30.9,6.5,29.85,NNE,22,8.1,8.1,35,0.00,,---,0.00,VWS V14.01,2013-03-12 05:43:00,
2013-03-11 21:48:00,30.7,6.3,29.82,NNE,22,3.4,4.3,35,0.00,,---,0.00,VWS V14.01,2013-03-12 05:48:00,
2013-03-11 21:53:00,30.6,6.2,29.82,North,0,3.1,13.2,35,0.00,,---,0.00,VWS V14.01,2013-03-12 05:53:00,
2013-03-11 21:58:00,30.7,6.3,29.82,WNW,292,4.3,4.3,35,0.00,,---,0.00,VWS V14.01,2013-03-12 05:58:00,
2013-03-11 22:03:00,30.6,6.2,29.85,NNE,22,8.1,8.5,35,0.00,,---,0.00,VWS V14.01,2013-03-12 06:03:00,
2013-03-11 22:08:00,30.4,6.0,29.85,North,0,6.7,6.7,35,0.00,,---,0.00,VWS V14.01,2013-03-12 06:08:00,
2013-03-11 22:13:00,30.9,6.5,29.85,NNW,338,5.4,5.4,35,0.00,,---,0.00,VWS V14.01,2013-03-12 06:13:00,
2013-03-11 22:18:00,30.7,5.7,29.85,ENE,68,5.6,5.6,34,0.00,,---,0.00,VWS V14.01,2013-03-12 06:18:00,
2013-03-11 22:23:00,30.7,5.7,29.85,NNW,338,4.9,13.0,34,0.00,,---,0.00,VWS V14.01,2013-03-12 06:23:00,
2013-03-11 22:28:00,30.6,5.5,29.85,ENE,68,8.5,9.8,34,0.00,,---,0.00,VWS V14.01,2013-03-12 06:28:00,
2013-03-11 22:33:00,30.4,6.0,29.85,NNE,22,3.4,6.5,35,0.00,,---,0.00,VWS V14.01,2013-03-12 06:33:00,
2013-03-11 22:38:00,30.2,5.9,29.85,NNE,22,10.1,10.1,35,0.00,,---,0.00,VWS V14.01,2013-03-12 06:38:00,
2013-03-11 22:43:00,30.2,5.9,29.85,NNE,22,3.8,10.1,35,0.00,,---,0.00,VWS V14.01,2013-03-12 06:43:00,
2013-03-11 22:48:00,30.2,5.9,29.85,SE,135,3.8,19.2,35,0.00,,---,0.00,VWS V14.01,2013-03-12 06:48:00,
2013-03-11 22:53:00,30.2,5.9,29.85,ENE,68,2.5,9.8,35,0.00,,---,0.00,VWS V14.01,2013-03-12 06:53:00,
2013-03-11 22:58:00,30.0,5.7,29.85,WNW,292,7.8,7.8,35,0.00,,---,0.00,VWS V14.01,2013-03-12 06:58:00,
2013-03-11 23:03:00,30.0,5.7,29.85,North,0,10.5,10.5,35,0.00,,---,0.00,VWS V14.01,2013-03-12 07:03:00,
2013-03-11 23:08:00,30.0,5.7,29.85,ENE,68,4.3,5.8,35,0.00,,---,0.00,VWS V14.01,2013-03-12 07:08:00,
2013-03-11 23:13:00,30.0,5.7,29.85,NNW,338,7.6,7.6,35,0.00,,---,0.00,VWS V14.01,2013-03-12 07:13:00,
2013-03-11 23:18:00,29.8,5.5,29.85,WNW,292,11.0,11.0,35,0.00,,---,0.00,VWS V14.01,2013-03-12 07:18:00,
2013-03-11 23:23:00,30.0,5.7,29.85,NNE,22,5.4,5.8,35,0.00,,---,0.00,VWS V14.01,2013-03-12 07:23:00,
2013-03-11 23:28:00,29.8,5.5,29.85,NNE,22,5.8,6.7,35,0.00,,---,0.00,VWS V14.01,2013-03-12 07:28:00,
2013-03-11 23:33:00,29.7,6.0,29.85,ENE,68,3.4,4.9,36,0.00,,---,0.00,VWS V14.01,2013-03-12 07:33:00,
2013-03-11 23:38:00,29.7,6.0,29.85,NNW,338,13.2,13.2,36,0.00,,---,0.00,VWS V14.01,2013-03-12 07:38:00,
2013-03-11 23:43:00,29.7,6.0,29.85,ENE,68,7.2,10.5,36,0.00,,---,0.00,VWS V14.01,2013-03-12 07:43:00,
2013-03-11 23:48:00,29.5,5.8,29.85,NE,45,10.7,12.3,36,0.00,,---,0.00,VWS V14.01,2013-03-12 07:48:00,
2013-03-11 23:53:00,29.5,5.8,29.85,NNW,338,4.3,11.4,36,0.00,,---,0.00,VWS V14.01,2013-03-12 07:53:00,
2013-03-11 23:58:00,29.5,5.8,29.85,NNW,338,13.4,13.4,36,0.00,,---,0.00,VWS V14.01,2013-03-12 07:58:00,